Regional Weather Roundup
Issued by NWS Jackson, KY

Home | Current Version | Previous Version | Graphics & Text | Print | Product List | Glossary On
Versions: 1 2 3 4 5 6 7 8 9 10 11 12 13 14 15 16 17 18 19 20 21 22 23 24 25 26 27 28 29 30 31 32 33 34 35 36 37 38 39 40 41 42 43 44 45 46 47 48 49 50
000
ASUS43 KJKL 290510
RWRJKL

EAST KENTUCKY HOURLY WEATHER ROUNDUP
NATIONAL WEATHER SERVICE JACKSON KY
100 AM EDT FRI MAY 29 2015

NOTE: "FAIR" INDICATES FEW OR NO CLOUDS BELOW 12,000 FEET WITH
NO SIGNIFICANT WEATHER AND/OR OBSTRUCTIONS TO VISIBILITY.

* THESE REPORTS ARE NOT UNDER NWS QUALITY CONTROL AND MAY NOT
  REPORT WEATHER SUCH AS PRECIPITATION AND FOG.

KYZ079-080-083-085-087-088-110-112-115-119-120-290600
...EASTERN KENTUCKY...

CITY           SKY/WX    TMP DP  RH WIND       PRES   REMARKS
JACKSON        CLOUDY    70  66  87 CALM      30.20F
LONDON         MOCLDY    68  64  87 CALM      30.20F
SOMERSET*      FOG       64  64 100 CALM      30.20F VSB 1/2
MONTICELLO*    MOCLDY    70  68  93 CALM      30.20F
MIDDLESBORO*   CLOUDY    68  66  94 CALM      30.22S
HARLAN APT*    CLOUDY    66  64  94 CALM      30.23S
HAZARD APT*    CLOUDY    68  68 100 SE3       30.21F
BLACK MTN*       N/A     63  57  82 S1          N/A
PIKEVILLE APT* MOCLDY    68  61  77 SE6       30.21F
BIG SANDY*     MOCLDY    72  63  73 S5        30.21S
MOREHEAD APT*  CLOUDY    72  66  83 CALM      30.20F
$$

KYZ035-036-041-042-044-050-067-078-099-290600
...CENTRAL KENTUCKY...

CITY           SKY/WX    TMP DP  RH WIND       PRES   REMARKS
MT STERLING*   CLOUDY    68  68 100 CALM      30.20F
FLEMING/MASON* CLOUDY    72  66  83 CALM      30.19F
DANVILLE*      LGT RAIN  64  63  94 CALM      30.19F
RICHMOND*      MOCLDY    68  64  88 SE5       30.18F
LEXINGTON      CLOUDY    68  65  90 CALM      30.17F
FRANKFORT      CLOUDY    69  66  90 E5        30.15F
$$

KYZ091>093-OHZ055-061-077-WVZ005-015-034-035-042-290600
...SOUTHERN OHIO/WEST VIRGINIA...

CITY           SKY/WX    TMP DP  RH WIND       PRES   REMARKS
COVINGTON      MOCLDY    69  65  86 S5        30.16F
COLUMBUS       MOCLDY    71  62  73 SE5       30.18F
DAYTON         PTCLDY    70  63  78 SE7       30.17S
WILMINGTON     MOCLDY    69  63  81 SE3       30.17F
HUNTINGTON     CLOUDY    69  66  90 E3        30.18F
CHARLESTON     PTCLDY    67  65  93 CALM      30.19F
PINEVILLE*     MOCLDY    64  64  99 MISG      30.29F
BECKLEY        PTCLDY    66  59  78 SE5       30.28F
BLUEFIELD      MOCLDY    68  58  70 CALM      30.29F
$$

VAZ002-007-008-TNZ017-027-036-066-071-290600
...SOUTHWEST VIRGINIA/EAST TENNESSEE...

CITY           SKY/WX    TMP DP  RH WIND       PRES   REMARKS
WISE*          CLOUDY    63  63 100 S3        30.29F
JONESVILLE*    CLOUDY    66  66 100 CALM      30.24F
ABINGDON*      MOCLDY    67  63  87 CALM      30.26F
BRISTOL        MOCLDY    67  65  93 CALM      30.23F
KNOXVILLE      CLOUDY    71  65  81 W3        30.19F
OAK RIDGE      CLOUDY    71  65  81 CALM      30.21F
CROSSVILLE     CLOUDY    68  62  81 S3        30.22F
NASHVILLE      CLOUDY    69  66  90 SE5       30.14F
$$

...KEY TO REMARKS...
VSB - VISIBILITY IN MILES
WCI - WIND CHILL INDEX
HX  - HEAT INDEX

$$



USA.gov is the U.S. government's official web portal to all federal, state and local government web resources and services.